sat.trackr.live / text

‹ back to catalog

STARLINK-31557

NORAD 59357 · 2024-060K

PAYLOAD ACTIVE UNKNOWN

§ Identity

Operator
Country
US
Launch date
2024-03-31
Launch site
AFETR
Launch vehicle
Mass (kg)
RCS (m²)

Purposes: comms

External: N2YO · Heavens-Above · Gunter

§ Orbital elements

Epoch: 2026-05-25T03:38:11.277888Z

Period
94.27 min
Inclination
43.0027°
Eccentricity
0.0001365
Mean motion
15.27576926 rev/d
Perigee alt
482.1 km
Apogee alt
484.0 km
Semi-major
6,861.2 km
B*
-3.9791e-6
RAAN
183.9463°
Arg perigee
275.2662°
Mean anomaly
84.8034°
Rev number
12,180

§ Raw data

STARLINK-315571 59357U 24060K   26145.15151942 -.00000372  00000+0 -39791-5 0  99942 59357  43.0027 183.9463 0001365 275.2662  84.8034 15.27576926121805

JSON: /api/v1/satellites/59357 · /tle

For live sub-satellite position, see the globe view (requires WebGL).

§ Visibility from observer

Set your observer location to see the next 7 days of passes ≥ 10°. The values pass through the URL so the page stays shareable.

No JS? Fill the form by hand. The geolocation button needs JavaScript.